Overview Statistics Trail Chart Weather Telemetry Raw packets
 

This is the latest recevied weather packets stored in our database for station/object KF0WJA. If no packets are shown the sender has not sent any weather packets the latest 10 day(s).

<< 104 105 106 107 108 109 110 >>
Time Temp. Humidity Pressure Rain* Wind** Luminosity Snow
1787874603 31.11° C 40% 1019.3 hPa 0 mm - 121 W/m² -
1787874297 31.67° C 39% 1019.2 hPa 0 mm - 138 W/m² -
1787873996 31.67° C 38% 1019.4 hPa 0 mm - 153 W/m² -
1787873695 31.67° C 38% 1019.4 hPa 0 mm - 160 W/m² -
1787873391 32.22° C 37% 1019.6 hPa 0 mm - 177 W/m² -
1787873091 32.22° C 37% 1019.5 hPa 0 mm - 197 W/m² -
1787872785 32.22° C 37% 1019.6 hPa 0 mm - 208 W/m² -
1787872482 32.22° C 37% 1019.5 hPa 0 mm - 222 W/m² -
1787872182 32.22° C 37% 1019.7 hPa 0 mm - 243 W/m² -
1787871881 32.78° C 37% 1019.5 hPa 0 mm - 259 W/m² -
1787871576 32.78° C 37% 1019.9 hPa 0 mm - 277 W/m² -
1787871272 32.78° C 36% 1019.7 hPa 0 mm - 290 W/m² -
1787870969 32.78° C 37% 1019.8 hPa 0 mm - 298 W/m² -
1787870666 32.78° C 36% 1019.8 hPa 0 mm - 307 W/m² -
1787870366 33.33° C 37% 1019.8 hPa 0 mm - 332 W/m² -
1787870062 33.33° C 37% 1019.6 hPa 0 mm - 355 W/m² -
1787869760 33.33° C 37% 1019.8 hPa 0 mm - 365 W/m² -
1787869455 33.33° C 37% 1019.9 hPa 0 mm - 365 W/m² -
1787869150 33.33° C 39% 1019.9 hPa 0 mm - 400 W/m² -
1787868849 33.33° C 40% 1019.9 hPa 0 mm - 397 W/m² -
1787868547 33.33° C 40% 1019.9 hPa 0 mm - 410 W/m² -
1787868247 33.89° C 38% 1019.9 hPa 0 mm - 416 W/m² -
1787867942 33.89° C 40% 1020 hPa 0 mm - 412 W/m² -
1787867638 33.89° C 40% 1020 hPa 0 mm - 429 W/m² -
1787867332 33.33° C 40% 1020 hPa 0 mm - 455 W/m² -

* Rain latest hour (hover to see other rain measurements)
** Current wind speed in m/s (hover to see current wind gust speed)